Wetbulb
64.22 64.66 65.04 65.33 65.07 65.41 65.44 65.77 66.07 66.97 67.03 66.68 66.37 66.16 66.34 68.24 68.98 68.64 68.15 67.10 66.14 66.11 65.59 65.17 65.22 65.88 63.09 62.94 62.98 62.20 61.48 61.03 58.05 59.52 62.00 63.99 65.68 65.42 65.48 68.70 68.14 68.90 68.13
62.35 62.52 62.76 62.74 62.91 63.30 64.01 64.25 64.98 64.91 65.33 64.98 64.94 64.58 64.34 65.18 67.70 67.55 66.02 65.75 65.48 64.88 64.70 64.94 64.10 64.28 64.58 64.39 62.88 62.43 61.50 62.41 60.36 58.99 61.19 61.34 63.22 65.83 66.53 67.48 66.71 66.47 67.72
60.20 60.16 61.06 61.27 61.81 61.63 61.89 62.38 62.41 62.18 62.08 62.20 62.02 62.02 62.58 63.60 64.95 65.74 66.00 65.60 64.96 64.89 64.66 64.64 63.95 63.78 62.99 62.97 63.41 62.55 62.60 62.49 62.31 60.43 59.43 60.60 60.41 61.54 62.31 64.59 64.34 67.35 67.53
59.07 58.85 59.01 59.49 59.99 60.01 60.22 60.28 60.25 60.34 60.17 60.10 60.54 60.46 60.69 60.80 61.45 62.41 62.47 63.66 64.49 64.81 64.47 64.49 64.55 63.53 63.04 63.11 62.56 62.38 62.31 61.50 61.32 59.93 59.23 59.10 59.44 61.35 62.20 61.46 61.58 64.92 64.44
57.77 57.56 58.06 58.81 58.90 58.61 58.40 58.48 58.67 58.64 58.44 58.55 58.08 58.23 59.18 59.61 58.66 60.59 61.56 61.82 62.03 62.22 62.82 63.36 63.54 62.77 60.27 60.49 61.52 61.86 61.27 60.62 59.85 58.87 57.32 57.10 56.73 57.05 58.52 56.57 59.86 61.64 63.94
56.62 56.22 56.90 56.85 56.82 56.89 57.06 57.34 58.01 56.99 56.85 56.77 56.68 55.98 57.65 56.79 50.78 48.39 51.32 56.90 57.70 57.72 57.86 59.20 60.80 58.62 58.92 54.66 54.73 54.82 57.74 59.71 58.66 56.89 57.09 56.56 57.99 56.96 57.98 56.89 54.40 57.76 57.42
55.48 55.38 55.35 55.33 54.84 55.05 55.30 54.97 56.16 57.01 57.95 55.75 55.91 55.29 56.48 57.69 49.28 47.23 47.70 54.65 55.80 56.88 57.40 57.42 57.22 56.18 56.13 58.36 55.77 52.91 53.22 51.82 52.63 57.80 56.48 56.42 56.96 58.69 58.67 57.40 55.76 58.93 58.87
54.03 53.91 53.96 53.56 53.07 53.21 52.97 53.80 55.76 55.42 55.79 55.12 54.84 55.25 55.78 55.87 46.60 43.65 44.65 50.57 51.96 53.12 53.54 54.25 54.97 55.94 57.04 56.57 57.31 57.03 57.47 59.47 57.62 54.77 55.43 57.61 58.99 59.98 59.98 58.26 57.47 58.40 60.19
52.47 52.30 52.04 51.79 51.31 51.43 51.12 52.68 53.67 53.29 52.06 51.17 51.01 51.10 50.82 50.92 45.10 41.86 42.98 47.26 47.61 49.10 50.88 51.78 51.37 51.17 49.58 46.82 52.69 54.61 56.08 57.49 55.06 50.58 51.00 49.50 48.74 48.09 50.79 56.37 53.56 52.99 53.58
51.00 50.95 51.00 51.10 50.84 50.46 50.82 49.45 48.77 48.43 47.44 46.91 45.29 45.50 43.97 43.36 42.57 41.77 42.21 43.20 43.40 44.44 45.89 47.20 46.81 47.03 46.71 43.77 52.94 53.77 54.33 55.43 56.04 55.41 52.68 48.71 47.30 52.67 47.06 54.41 55.63 53.36 53.18
50.49 50.25 50.43 50.63 49.20 47.45 46.04 44.82 42.91 40.60 40.19 40.19 39.87 40.65 41.91 42.72 43.32 41.41 41.04 42.82 42.97 42.61 43.85 45.35 49.08 45.05 42.91 42.65 43.14 52.38 53.31 52.91 52.07 53.43 53.41 53.87 54.86 55.39 57.14 58.44 58.04 56.42 56.22
49.28 48.25 47.19 45.36 43.83 40.93 38.90 38.38 38.31 39.19 38.72 37.99 38.35 39.39 40.57 42.30 42.52 41.75 40.63 40.85 42.18 43.70 44.56 47.25 49.25 43.70 42.16 42.39 43.29 43.81 42.47 44.48 51.45 51.53 52.13 53.16 54.59 55.36 56.40 58.64 59.90 59.65 60.38
44.56 42.97 42.27 40.82 37.77 37.43 36.26 36.85 38.18 39.40 38.47 37.54 38.00 38.80 40.21 42.40 43.85 42.41 40.68 40.18 40.78 43.01 45.88 46.37 43.76 42.18 41.44 42.37 41.32 41.83 41.98 51.26 51.57 51.25 51.73 52.29 53.60 55.10 58.48 59.68 60.74 61.20 60.22
38.06 36.34 36.39 36.19 36.65 36.86 37.27 38.85 38.88 38.44 38.07 38.09 38.24 38.81 40.24 41.36 41.94 42.94 45.95 45.90 43.08 43.40 44.77 46.20 45.74 44.98 44.84 46.73 46.85 48.75 51.83 52.69 50.69 49.42 50.59 53.17 55.00 55.53 56.72 55.96 58.58 59.25 57.55
34.54 34.57 35.33 35.12 35.14 34.59 36.01 37.19 37.67 39.41 39.74 38.54 38.62 38.95 38.32 38.63 40.25 39.92 38.93 41.28 41.15 40.49 40.20 41.87 44.46 48.16 50.03 50.85 51.74 51.86 51.75 51.49 50.04 49.64 49.21 49.31 50.72 53.86 54.89 57.74 58.43 56.66 54.97
32.37 32.22 32.94 33.54 33.82 34.14 34.54 35.69 38.73 38.12 38.12 37.62 37.33 37.34 38.63 38.26 37.74 37.84 37.88 37.60 37.37 37.58 38.95 40.75 47.77 49.18 48.83 51.10 49.98 51.24 52.49 52.26 53.37 54.02 50.84 50.47 51.14 51.80 53.55 55.32 55.60 54.88 54.38
32.06 32.16 32.57 33.51 33.82 33.70 34.42 36.80 37.12 39.95 39.71 38.65 37.57 37.22 37.07 37.22 37.32 37.33 37.31 36.79 36.41 36.96 41.88 48.29 49.01 49.82 50.09 50.93 51.85 52.12 52.45 53.29 54.55 52.01 51.49 52.05 53.71 54.44 52.57 53.98 54.36 56.25 56.46
32.94 33.66 33.81 33.82 34.18 34.27 36.38 38.60 40.05 39.92 39.35 40.22 40.22 38.98 38.90 37.54 36.96 36.71 36.45 37.00 40.61 43.65 46.48 47.95 48.27 50.45 51.13 52.37 52.30 52.64 53.64 54.91 54.08 55.19 55.97 56.74 57.40 55.75 55.51 55.86 56.37 54.73 55.73
32.90 34.07 34.78 34.89 35.31 36.80 38.68 41.40 40.91 40.46 39.74 40.02 41.39 41.75 40.90 37.50 37.15 37.09 37.01 43.23 44.26 46.38 48.85 47.78 50.82 51.61 53.22 54.18 54.36 54.71 55.51 55.30 56.36 56.25 57.26 58.56 57.76 56.16 55.38 55.94 55.69 48.24 52.75
34.68 34.67 35.17 36.40 37.62 41.27 42.40 41.16 40.57 40.46 40.69 41.63 42.14 43.43 45.07 43.72 46.15 47.57 48.55 48.21 49.31 48.10 47.57 49.43 51.08 52.56 54.71 55.01 54.95 56.74 57.73 58.05 57.91 57.18 59.18 60.05 59.98 58.88 57.90 58.64 58.98 58.33 59.39
35.04 36.09 34.30 39.21 41.53 42.21 42.68 42.03 43.19 43.08 41.11 41.26 44.07 44.53 34.68 44.42 46.55 47.55 49.43 47.73 48.31 47.07 48.13 51.15 52.19 52.63 54.93 54.71 58.00 58.44 58.43 57.28 59.54 59.48 59.63 60.66 60.57 59.21 60.38 58.00 59.28 57.56 59.57
35.35 34.73 36.53 39.74 41.83 41.34 40.78 42.06 43.69 41.87 41.35 41.82 43.93 45.19 36.40 47.73 48.35 48.95 49.18 49.77 49.59 48.90 51.44 52.61 51.77 52.11 56.06 56.95 58.29 57.18 59.33 59.08 59.76 60.02 59.43 59.27 59.31 58.90 59.23 58.17 58.75 59.07 58.75
34.59 33.73 34.75 37.13 38.35 37.55 40.24 41.22 40.66 40.48 40.81 43.72 47.06 45.61 45.30 47.96 49.14 48.08 48.82 49.38 49.05 51.01 53.52 53.24 53.70 56.39 58.68 60.70 59.36 59.72 57.62 59.47 60.99 61.05 60.31 57.82 57.42 57.68 57.62 59.00 58.80 59.38 59.37
33.22 32.77 32.39 32.29 32.99 34.43 36.07 37.92 39.57 37.24 39.96 44.43 43.40 43.27 44.22 47.11 47.67 49.25 48.83 48.84 50.10 51.71 53.99 54.68 57.30 57.16 57.76 59.06 58.27 60.31 61.28 61.40 62.38 61.25 60.89 58.09 58.42 56.68 58.14 58.26 58.28 59.00 59.80
32.27 31.88 31.50 30.95 30.80 30.76 31.98 33.46 34.67 35.95 39.24 41.86 42.88 41.89 41.70 42.89 43.59 45.68 47.29 47.83 50.13 52.83 54.21 56.26 57.88 59.57 60.20 60.14 59.49 58.64 42.19 38.70 54.00 43.24 59.52 58.97 58.03 58.23 57.69 57.50 57.95 58.47 58.39
30.82 31.03 30.79 30.81 30.48 30.39 30.12 30.38 31.84 33.25 34.53 36.46 38.54 39.29 39.14 39.55 40.43 41.24 41.92 45.83 51.87 55.65 56.78 58.20 59.35 59.78 60.17 58.58 53.92 38.62 36.52 37.06 47.70 38.05 57.68 59.13 58.11 57.80 57.46 56.96 57.13 57.11 57.40
MSLP
1006.66 1007.03 1007.37 1007.43 1007.53 1007.84 1008.05 1008.17 1008.18 1008.31 1008.38 1008.35 1008.37 1008.36 1008.43 1008.61 1008.95 1009.18 1009.19 1009.14 1008.99 1008.88 1009.08 1008.91 1008.61 1008.54 1008.42 1008.29 1008.12 1007.90 1007.75 1007.57 1006.98 1006.77 1006.78 1006.92 1006.91 1006.83 1006.66 1006.22 1005.86 1005.64 1005.29
1007.29 1007.57 1007.91 1008.15 1008.26 1008.35 1008.44 1008.49 1008.48 1008.49 1008.43 1008.34 1008.22 1008.04 1007.99 1007.89 1007.90 1008.16 1008.52 1008.29 1008.03 1008.06 1008.09 1008.05 1007.88 1007.84 1007.72 1007.84 1007.71 1007.54 1007.43 1007.36 1007.17 1006.70 1006.81 1006.62 1006.46 1006.16 1005.98 1005.82 1005.66 1005.19 1004.91
1007.76 1007.77 1008.03 1008.42 1008.64 1008.67 1008.75 1008.75 1008.76 1008.68 1008.47 1008.31 1008.03 1007.90 1007.66 1007.47 1007.34 1007.30 1007.15 1006.99 1007.07 1007.08 1007.15 1006.98 1006.92 1007.05 1007.13 1007.16 1006.92 1006.65 1006.50 1006.44 1006.31 1005.96 1005.85 1006.31 1006.27 1006.04 1005.56 1005.33 1005.18 1004.67 1004.46
1008.18 1008.20 1008.28 1008.58 1008.68 1008.75 1008.74 1008.70 1008.59 1008.38 1008.26 1008.13 1007.96 1007.73 1007.48 1007.27 1007.07 1006.90 1006.64 1006.28 1005.99 1005.68 1005.85 1005.93 1005.94 1006.11 1006.15 1006.29 1006.38 1006.43 1006.42 1006.27 1005.97 1005.83 1005.61 1005.52 1005.48 1005.16 1004.84 1004.44 1004.08 1003.64 1003.80
1008.55 1008.48 1008.45 1008.42 1008.40 1008.38 1008.36 1008.32 1008.30 1008.35 1008.21 1008.03 1007.75 1007.45 1007.17 1006.92 1006.63 1006.34 1006.21 1005.92 1005.65 1005.38 1005.16 1005.10 1005.00 1005.02 1005.21 1005.38 1005.46 1005.45 1005.60 1005.60 1005.24 1005.10 1004.80 1004.88 1004.67 1004.82 1004.72 1004.96 1004.42 1003.85 1004.15
1008.69 1008.48 1008.28 1008.17 1008.08 1008.02 1008.04 1008.09 1008.06 1007.92 1007.77 1007.58 1007.28 1007.04 1006.73 1006.48 1006.24 1006.45 1006.59 1006.21 1005.83 1005.40 1004.90 1004.68 1004.56 1004.41 1004.16 1004.27 1004.24 1004.56 1004.89 1005.07 1004.97 1004.96 1004.57 1004.07 1004.31 1004.80 1005.11 1005.09 1005.30 1004.81 1003.31
1008.42 1008.18 1007.99 1007.88 1007.78 1007.69 1007.52 1007.46 1007.42 1007.32 1007.29 1007.13 1006.95 1006.83 1006.40 1006.23 1006.29 1006.30 1006.43 1006.12 1005.72 1005.33 1005.06 1004.78 1004.39 1004.07 1003.87 1003.56 1003.34 1003.53 1003.46 1003.79 1004.07 1004.39 1004.40 1004.41 1004.42 1004.51 1004.91 1005.14 1005.17 1004.78 1004.49
1008.37 1008.14 1007.91 1007.68 1007.43 1007.34 1007.31 1007.27 1007.20 1007.14 1006.91 1006.71 1006.51 1006.25 1005.95 1005.73 1006.15 1006.45 1006.52 1006.38 1005.78 1005.34 1005.15 1004.87 1004.48 1004.04 1003.79 1003.60 1003.19 1002.85 1002.70 1002.69 1003.10 1003.58 1003.57 1003.77 1004.00 1004.35 1004.56 1004.93 1005.22 1004.86 1004.46
1008.30 1008.01 1007.80 1007.63 1007.49 1007.50 1007.45 1007.43 1007.29 1007.08 1006.96 1006.96 1006.89 1006.72 1006.56 1006.31 1006.43 1006.76 1006.79 1006.22 1005.66 1005.15 1004.71 1004.43 1004.29 1003.92 1003.64 1003.46 1003.28 1002.69 1002.18 1001.94 1002.11 1002.19 1002.41 1002.83 1003.26 1003.70 1004.15 1004.50 1004.24 1004.30 1003.85
1008.32 1008.11 1008.09 1008.03 1007.93 1007.84 1007.75 1008.01 1008.06 1008.01 1007.70 1007.53 1007.21 1007.20 1007.09 1006.80 1006.66 1006.61 1006.61 1006.49 1005.68 1005.18 1004.88 1004.30 1003.57 1003.24 1002.78 1002.72 1002.74 1002.30 1001.63 1001.34 1001.45 1001.45 1001.92 1002.20 1002.44 1002.98 1003.33 1003.72 1003.64 1003.58 1003.23
1008.59 1008.50 1008.39 1008.22 1008.41 1008.68 1008.72 1008.93 1009.06 1008.88 1008.48 1008.00 1007.63 1007.29 1006.92 1006.46 1005.90 1005.72 1005.61 1005.62 1005.15 1004.75 1004.13 1003.38 1002.38 1001.71 1001.84 1001.98 1002.12 1001.76 1001.31 1001.28 1001.36 1001.25 1001.33 1001.35 1001.37 1001.62 1001.86 1001.96 1002.33 1002.34 1002.08
1009.07 1009.11 1009.18 1009.42 1009.55 1009.89 1009.90 1009.38 1009.03 1008.59 1008.13 1007.58 1007.09 1006.40 1005.83 1005.31 1004.85 1004.59 1004.52 1004.54 1004.36 1003.94 1003.07 1002.29 1001.44 1001.14 1001.08 1001.14 1001.25 1001.05 1001.07 1001.12 1000.82 1000.56 1000.34 1000.06 999.96 1000.06 1000.42 1000.91 1001.06 1001.33 1001.51
1010.11 1010.11 1009.96 1010.11 1010.31 1010.03 1009.52 1008.88 1008.28 1007.87 1007.47 1006.86 1006.23 1005.43 1004.76 1004.26 1003.85 1003.53 1003.32 1003.17 1003.48 1003.42 1002.63 1001.78 1001.19 1000.92 1000.77 1000.60 1000.34 1000.12 1000.38 1000.08 999.76 999.52 999.22 999.14 999.06 999.40 999.78 1000.01 1000.27 1000.60 1000.99
1010.90 1010.85 1010.56 1010.17 1009.71 1009.39 1008.83 1008.15 1007.53 1007.01 1006.57 1006.08 1005.51 1004.87 1004.22 1003.76 1003.52 1003.26 1002.84 1002.72 1002.84 1002.68 1002.07 1001.36 1000.94 1000.35 999.60 999.06 998.93 998.52 998.36 998.29 998.15 997.94 997.69 997.68 997.77 998.25 998.85 999.73 999.79 1000.11 1000.66
1011.37 1010.90 1010.29 1009.84 1009.43 1008.89 1008.28 1007.70 1007.18 1006.48 1005.89 1005.51 1005.01 1004.61 1004.15 1003.53 1003.29 1003.36 1003.43 1003.11 1002.93 1002.55 1002.46 1001.60 1000.31 999.18 998.46 997.73 997.41 997.14 996.99 996.67 996.26 996.07 996.38 996.92 997.46 997.91 998.60 999.02 999.22 999.59 999.92
1011.25 1010.78 1010.28 1009.75 1009.19 1008.65 1007.94 1006.92 1006.22 1005.73 1005.14 1004.69 1004.35 1004.18 1003.64 1003.37 1003.22 1003.21 1003.07 1002.78 1002.48 1002.15 1001.97 1000.83 999.19 998.25 997.72 997.04 996.89 996.30 995.53 994.67 993.48 992.51 993.81 995.19 996.20 997.25 997.88 998.39 998.77 999.01 999.40
1011.09 1010.58 1010.00 1009.44 1008.81 1008.18 1007.42 1006.47 1005.32 1004.47 1003.96 1003.69 1003.41 1003.13 1002.88 1002.69 1002.51 1002.42 1002.30 1002.15 1001.79 1001.59 1000.86 999.41 998.36 997.70 997.08 996.65 996.18 995.69 994.94 993.71 992.60 992.91 993.63 994.69 995.37 996.04 997.18 997.59 998.21 998.38 998.47
1010.75 1010.20 1009.68 1009.06 1008.38 1007.59 1006.72 1005.78 1004.89 1004.12 1003.42 1002.83 1002.32 1002.18 1001.68 1001.57 1001.59 1001.57 1001.56 1001.69 1000.99 1000.05 999.48 998.73 997.97 997.16 996.56 996.03 995.80 995.49 995.10 994.53 993.81 993.57 993.86 994.13 994.64 995.47 996.17 996.66 996.99 997.42 997.77
1010.44 1009.81 1009.27 1008.52 1007.64 1006.88 1006.12 1005.25 1004.66 1004.06 1003.43 1002.80 1002.09 1001.41 1001.08 1001.00 1000.98 1000.89 1000.92 1000.68 999.85 999.11 998.40 998.12 997.31 996.73 996.06 995.95 995.82 995.00 994.63 993.28 992.64 993.19 993.19 993.23 993.58 994.45 994.79 995.20 996.05 997.02 997.81
1010.02 1009.48 1008.82 1007.92 1007.08 1006.10 1005.42 1004.99 1004.49 1003.96 1003.34 1002.70 1002.04 1001.57 1001.15 1000.77 1000.13 999.79 999.49 998.94 998.46 998.48 998.61 997.65 997.11 996.79 996.03 995.62 994.95 994.72 993.60 992.73 992.36 992.85 993.00 993.10 993.36 993.70 994.08 994.66 995.08 996.10 997.26
1009.92 1009.21 1008.52 1007.54 1006.62 1006.07 1005.40 1004.83 1003.99 1003.62 1003.36 1002.80 1002.01 1001.35 1001.16 1000.59 999.75 999.09 998.47 998.51 998.31 998.58 998.22 997.46 996.94 996.57 996.23 995.16 994.74 993.77 993.37 992.95 992.71 993.10 993.35 993.45 993.48 993.83 994.02 994.80 995.17 996.25 997.06
1010.06 1009.42 1008.63 1007.57 1006.75 1006.39 1005.91 1005.15 1004.30 1004.06 1003.61 1003.00 1002.32 1001.58 1000.85 1000.00 999.10 998.41 997.91 997.96 998.57 998.49 997.71 997.06 997.49 996.85 996.17 995.45 994.76 993.67 994.15 993.14 993.23 993.46 993.78 993.81 993.97 994.07 994.46 994.86 995.59 996.47 997.29
1010.32 1009.80 1009.13 1008.33 1007.70 1007.02 1006.19 1005.64 1005.14 1004.69 1004.04 1003.14 1001.94 1001.47 1000.91 1000.21 999.29 998.76 998.47 998.61 999.02 998.16 997.24 996.88 996.33 995.99 995.66 994.91 994.66 995.14 994.37 993.83 993.84 993.72 993.78 994.03 994.46 994.69 994.89 995.07 995.30 996.23 997.28
1010.86 1010.42 1009.92 1009.42 1008.95 1008.15 1007.39 1006.52 1005.78 1005.37 1004.63 1003.28 1002.83 1002.52 1001.94 1001.14 1000.48 999.92 999.64 999.27 998.72 998.00 997.18 996.81 995.98 996.25 995.61 995.49 995.17 994.75 994.13 994.17 994.18 994.17 994.32 994.72 995.13 995.34 995.60 995.67 995.89 996.30 997.22
1011.54 1011.16 1010.71 1010.20 1009.69 1009.24 1008.54 1007.84 1007.16 1006.45 1005.59 1004.61 1003.91 1003.56 1003.16 1002.45 1001.73 1000.99 1000.35 999.98 999.18 998.20 997.44 996.80 996.21 995.56 994.99 994.59 994.91 995.37 995.47 995.59 995.55 995.53 995.59 995.92 996.04 996.08 996.37 996.30 996.68 996.85 997.77
1012.30 1011.95 1011.54 1011.07 1010.57 1010.06 1009.53 1009.01 1008.37 1007.68 1007.02 1006.33 1005.57 1004.96 1004.37 1003.64 1002.83 1001.98 1001.24 1000.10 998.64 997.30 996.60 996.21 995.92 995.88 995.70 996.32 996.64 996.47 996.66 996.79 996.64 996.55 996.29 996.31 996.41 996.69 997.24 997.00 996.92 997.19 997.72
Wind_Speed
4 3 1 2 3 3 4 6 7 8 9 10 11 12 12 12 12 12 12 13 14 13 14 14 14 13 11 10 9 9 10 10 12 10 10 10 12 12 12 12 11 11 11
3 3 3 3 4 3 5 6 7 9 10 11 13 14 15 16 14 15 16 16 16 17 17 17 17 13 15 14 12 13 12 11 11 15 11 11 12 11 10 11 10 11 11
6 5 3 5 5 6 6 7 8 9 10 11 12 14 16 16 15 16 16 18 19 20 19 19 18 18 17 14 15 13 12 10 11 11 10 10 11 11 12 10 12 10 10
7 7 7 7 8 8 9 10 11 11 12 13 14 16 16 17 17 17 18 17 18 17 19 20 20 19 19 17 16 16 14 13 12 12 11 10 10 10 11 9 10 8 6
8 9 9 9 10 11 12 12 13 14 14 15 16 17 17 15 14 17 16 17 17 18 19 19 19 20 24 21 15 15 16 15 13 13 12 11 9 9 10 7 11 6 8
10 11 12 12 13 13 13 14 14 15 15 16 17 18 17 14 15 6 7 13 16 17 17 17 17 18 16 18 21 23 20 16 16 13 13 12 10 8 11 7 7 12 10
12 13 14 15 15 16 16 16 14 14 13 15 16 18 18 17 13 11 6 13 15 16 17 16 17 17 17 19 17 21 22 21 22 18 18 14 14 10 9 11 13 10 11
15 15 16 16 17 17 17 16 14 14 14 15 16 17 17 14 9 3 3 12 15 15 15 16 17 17 17 17 18 18 17 15 15 11 15 15 15 11 10 10 11 11 10
16 17 16 16 17 17 18 17 15 15 15 15 15 15 15 13 9 8 12 12 14 16 17 18 17 17 19 15 15 18 18 17 13 17 16 14 13 11 10 8 11 11 12
17 16 16 16 16 17 16 16 14 13 14 11 14 14 16 16 17 17 17 11 13 11 14 16 23 23 20 10 14 14 17 16 16 14 5 7 8 12 15 13 12 13 11
16 16 16 15 15 14 13 13 14 13 13 14 14 14 15 15 17 19 17 11 10 11 11 12 13 10 11 12 14 14 14 9 10 8 10 10 11 12 13 12 14 14 12
16 17 16 15 12 12 14 13 12 12 12 12 12 12 11 13 17 16 17 19 18 13 13 12 14 14 13 14 12 13 15 14 14 14 14 13 13 12 12 11 13 14 13
16 16 16 16 12 11 12 12 12 11 10 11 10 10 10 10 9 11 17 20 15 11 10 17 21 16 10 10 17 18 15 13 13 13 13 13 12 9 12 11 11 14 11
17 14 11 11 12 11 10 9 9 9 9 10 10 10 10 9 7 9 4 3 6 9 11 9 14 17 20 17 12 13 12 12 13 13 13 13 12 12 8 8 8 8 8
11 11 11 10 11 11 10 9 9 12 11 9 10 9 9 9 7 5 8 9 7 10 12 10 10 10 11 9 10 9 10 12 14 16 15 14 13 12 10 9 9 9 10
11 10 9 9 9 8 9 11 14 16 22 22 22 17 11 15 16 14 18 20 18 16 8 11 11 8 7 8 6 10 9 12 12 12 12 11 11 12 10 9 9 9 9
11 12 9 10 8 8 9 10 10 9 16 16 17 18 19 17 15 13 14 13 17 13 8 10 7 9 7 5 6 5 8 7 5 8 10 10 10 11 13 11 10 11 13
12 18 9 8 8 9 9 9 8 8 8 8 7 10 11 12 11 12 13 8 9 8 7 5 7 6 6 3 4 6 6 6 2 8 11 13 15 15 14 14 12 11 7
10 9 8 8 8 10 9 6 6 7 7 7 8 7 4 3 8 10 9 8 7 9 5 6 6 5 4 5 6 8 7 9 6 9 10 10 10 12 12 9 6 8 9
9 14 11 8 8 7 5 6 5 6 7 7 6 5 4 4 4 6 6 8 3 5 5 6 4 8 3 2 5 7 9 4 4 7 7 6 7 7 6 8 8 9 9
7 8 10 7 8 6 7 6 6 3 5 7 7 3 4 7 6 5 5 5 4 3 5 6 4 4 4 6 8 4 5 3 6 8 5 4 3 4 6 7 7 7 10
7 7 8 8 6 8 7 9 8 7 7 7 8 7 9 9 6 6 5 3 5 4 4 6 3 9 7 9 2 3 7 6 6 7 7 5 5 5 7 3 8 10 9
7 8 9 9 10 9 7 7 7 8 9 9 9 5 5 7 7 7 7 6 4 6 6 4 8 4 5 2 4 6 6 8 4 3 5 4 6 5 3 4 4 10 10
8 8 9 8 9 9 9 10 9 9 10 10 8 9 10 7 9 9 7 6 6 6 5 6 6 7 5 2 6 5 7 6 5 7 10 8 7 4 6 5 4 7 11
9 8 8 8 8 9 10 10 10 10 11 11 11 9 10 10 10 10 10 9 8 6 6 8 6 7 2 10 15 15 11 12 14 6 9 9 7 5 6 4 4 2 11
9 10 8 8 8 8 8 9 10 10 10 11 11 11 10 10 10 11 11 12 12 5 7 4 3 2 4 12 12 10 11 12 11 11 6 7 7 8 7 7 6 4 5
Wind_Direction
113 114 132 280 287 276 274 274 278 278 271 265 260 260 249 235 239 242 246 258 265 241 239 251 255 243 249 258 261 264 271 280 288 294 308 312 310 308 304 299 298 300 290
71 82 59 358 338 331 312 308 304 290 283 276 273 268 266 262 253 235 242 248 243 246 250 247 246 248 245 244 252 254 258 265 278 282 279 282 273 276 269 292 295 295 290
352 348 360 336 321 316 308 297 290 284 279 277 277 273 270 267 264 262 259 252 245 250 253 256 257 252 253 257 259 259 254 249 252 269 290 302 293 284 279 270 275 265 272
342 334 327 317 309 299 293 288 283 284 283 279 275 273 271 270 269 268 267 266 265 262 254 251 252 253 254 255 256 258 262 265 263 263 264 265 270 277 274 265 257 258 290
322 315 310 299 295 293 291 291 289 284 280 278 276 273 271 268 264 262 263 264 266 266 266 265 260 251 247 246 252 250 251 254 256 260 258 264 266 307 324 327 317 295 301
309 303 303 300 295 291 287 284 279 277 278 278 277 277 276 274 282 300 290 287 284 281 280 281 284 284 273 240 233 242 249 257 261 265 278 272 277 281 290 315 317 313 284
306 302 299 298 292 288 286 286 285 285 285 282 281 280 278 278 278 281 304 287 281 277 277 277 273 269 273 273 261 237 237 235 237 252 257 260 270 263 277 284 292 287 297
303 301 299 296 295 296 295 293 294 291 286 283 281 280 284 287 337 67 335 300 284 280 277 275 274 276 271 276 280 277 268 255 244 234 244 249 250 257 266 273 270 289 279
299 299 299 301 302 301 297 296 294 295 304 302 300 297 291 289 324 8 340 307 288 288 279 275 278 273 268 262 270 272 268 263 253 229 218 217 217 213 224 250 271 281 279
302 307 308 304 300 296 307 315 308 303 296 301 302 301 303 297 289 292 292 289 275 269 269 270 258 250 254 245 266 271 265 257 253 253 217 226 214 228 228 241 257 255 248
310 307 305 308 321 315 316 313 309 297 289 285 281 277 273 267 270 264 258 255 259 266 269 272 273 252 234 249 249 259 259 258 262 265 261 255 255 249 246 238 234 228 239
315 314 317 316 315 316 299 289 281 276 276 273 270 271 269 270 263 263 255 245 254 254 265 274 273 264 245 243 246 253 252 252 258 256 250 246 242 245 247 234 231 221 235
323 310 312 315 297 287 281 277 281 276 269 271 271 272 273 274 278 267 257 256 244 247 275 278 274 280 277 267 250 244 236 245 242 239 237 239 241 239 222 238 234 220 222
317 310 299 294 290 289 281 276 281 279 274 270 272 273 274 275 277 273 313 293 300 298 292 311 298 285 271 273 277 236 234 241 240 240 244 237 228 223 223 229 212 185 178
301 300 298 294 295 294 284 281 277 275 276 279 278 281 285 278 275 322 321 304 300 291 306 294 281 275 273 260 254 249 248 241 231 226 221 218 219 215 217 211 202 181 179
306 304 298 298 295 289 287 288 271 258 267 265 262 260 269 265 271 271 278 282 286 287 295 285 273 265 265 258 260 262 262 265 263 226 179 182 181 191 188 181 179 181 192
302 299 297 294 290 288 285 284 291 290 257 257 262 264 262 260 264 258 264 272 280 288 271 278 282 285 291 262 253 261 288 315 84 116 139 155 161 152 159 166 177 192 206
299 301 297 294 288 285 283 290 297 314 321 320 292 255 257 246 248 251 255 279 281 259 234 282 291 271 274 259 262 263 272 257 98 128 141 149 153 154 167 179 182 185 184
307 304 304 295 286 282 287 310 326 323 314 307 308 308 357 280 245 250 249 241 254 278 10 298 286 292 284 203 226 263 251 254 160 151 144 153 158 166 172 172 144 162 150
311 310 305 299 296 303 342 323 313 308 312 327 329 340 326 270 242 217 231 257 280 11 311 292 314 313 295 285 256 220 225 125 121 113 128 129 139 145 145 121 134 147 140
322 319 314 311 330 355 333 321 320 317 335 328 325 318 284 295 288 271 276 291 16 10 290 303 339 326 280 261 263 237 221 340 107 104 100 107 134 108 106 126 156 99 117
335 335 332 333 342 351 346 337 358 1 332 330 330 333 294 294 284 301 312 23 32 316 304 310 10 293 263 251 324 300 251 93 94 100 118 130 114 110 119 125 100 130 121
354 353 352 353 0 344 347 356 357 354 342 332 325 323 301 324 325 17 17 12 358 313 299 300 289 243 249 226 87 205 283 93 90 111 100 94 67 41 97 101 132 129 136
8 8 5 3 5 358 359 349 356 358 339 348 357 7 356 6 10 7 354 320 318 309 293 290 309 359 321 271 230 240 62 58 72 52 58 73 80 55 49 35 52 96 133
16 17 7 4 7 5 360 1 358 354 349 355 359 4 357 357 359 358 354 341 314 287 256 274 280 253 317 18 69 67 54 48 41 12 74 72 78 65 43 19 58 86 121
19 22 15 10 8 6 5 2 2 0 357 354 354 356 353 351 351 346 343 329 347 293 255 249 241 278 24 61 63 46 51 43 35 18 9 49 37 49 16 0 27 11 29